Weather History for KMNM - April, 2014

Change the Weather History Date:

Tuesday, April 1, 2014

  Actual Average Record
Temperature  
Mean Temperature 35 °F -  
Max Temperature 44 °F 46 °F 67 °F (1967)
Min Temperature 26 °F 28 °F 12 °F (1975)
Degree Days  
Heating Degree Days 30    
Moisture  
Dew Point 25 °F    
Average Humidity 69    
Maximum Humidity 87    
Minimum Humidity 55    
Precipitation  
Precipitation 0.00 in - - ()
Sea Level Pressure  
Sea Level Pressure 29.69 in    
Wind  
Wind Speed 15 mph (WSW)    
Max Wind Speed 23 mph    
Max Gust Speed 33 mph    
Visibility 10 miles    
Events      
Averages and records for this station are not official NWS values.
T = Trace of Precipitation, MM = Missing Value Source: NWS Daily Summary

Daily Weather History Graph

Daily Weather History Graph

Search for Another Location

Airport or City:

Trip Planner

Search our weather history database for the weather conditions in past years. The results will help you decide how hot, cold, wet, or windy it might be!

Date:

Astronomy

Apr. 01, 2014 Rise Set
Actual Time 6:31 AM CDT 7:18 PM CDT
Civil Twilight 6:01 AM CDT 7:48 PM CDT
Nautical Twilight 5:26 AM CDT 8:23 PM CDT
Astronomical Twilight 4:49 AM CDT 9:00 PM CDT
Moon 7:28 AM CDT (4/1) 9:47 PM CDT (4/1)
Length of Visible Light 13h 46m
Length of Day
12h 47m
Waxing Crescent, 5% of the Moon is Illuminated
Apr 1
Waxing Crescent
Apr 7
First Quarter
Apr 15
Full
Apr 22
Last Quarter
Apr 29
New

Hourly Weather History & Observations

Time (CDT) Temp. Windchill Dew Point Humidity Pressure Visibility Wind Dir Wind Speed Gust Speed Precip Events Conditions
12:15 AM 44.6 °F 35.9 °F 35.6 °F 71% 29.62 in 10.0 mi South 23.0 mph 33.4 mph N/A   Mostly Cloudy
12:35 AM 44.6 °F 35.9 °F 35.6 °F 71% 29.61 in 10.0 mi South 23.0 mph 33.4 mph N/A   Overcast
12:55 AM 44.6 °F 37.4 °F 35.6 °F 71% 29.61 in 10.0 mi South 16.1 mph 26.5 mph N/A   Overcast
1:15 AM 44.6 °F 37.4 °F 35.6 °F 71% 29.60 in 10.0 mi South 16.1 mph 26.5 mph N/A   Overcast
1:35 AM 44.6 °F 36.1 °F 35.6 °F 71% 29.59 in 10.0 mi South 21.9 mph 32.2 mph N/A   Scattered Clouds
1:55 AM 44.6 °F 36.1 °F 33.8 °F 66% 29.58 in 10.0 mi South 21.9 mph 31.1 mph N/A   Partly Cloudy
2:15 AM 44.6 °F 35.9 °F 33.8 °F 66% 29.56 in 10.0 mi South 23.0 mph 32.2 mph N/A   Mostly Cloudy
2:35 AM 44.6 °F 36.9 °F 33.8 °F 66% 29.56 in 10.0 mi South 18.4 mph 28.8 mph N/A   Scattered Clouds
2:55 AM 42.8 °F 35.4 °F 33.8 °F 70% 29.55 in 10.0 mi South 15.0 mph 23.0 mph N/A   Mostly Cloudy
3:15 AM 42.8 °F 34.8 °F 33.8 °F 70% 29.54 in 10.0 mi South 17.3 mph 21.9 mph N/A   Overcast
3:35 AM 42.8 °F 34.8 °F 33.8 °F 70% 29.54 in 10.0 mi South 17.3 mph 24.2 mph N/A   Overcast
3:55 AM 41.0 °F 32.8 °F 33.8 °F 76% 29.53 in 10.0 mi South 16.1 mph 21.9 mph N/A   Mostly Cloudy
4:15 AM 41.0 °F 32.2 °F 33.8 °F 76% 29.52 in 10.0 mi South 18.4 mph 23.0 mph N/A   Mostly Cloudy
4:35 AM 39.2 °F 30.5 °F 33.8 °F 81% 29.51 in 10.0 mi South 16.1 mph 21.9 mph N/A   Partly Cloudy
4:55 AM 39.2 °F 30.2 °F 33.8 °F 81% 29.50 in 10.0 mi South 17.3 mph 25.3 mph N/A   Partly Cloudy
5:15 AM 39.2 °F 31.2 °F 33.8 °F 81% 29.51 in 10.0 mi South 13.8 mph 21.9 mph N/A   Clear
5:35 AM 39.2 °F 32.0 °F 33.8 °F 81% 29.51 in 10.0 mi South 11.5 mph 18.4 mph N/A   Clear
5:55 AM 41.0 °F 32.8 °F 33.8 °F 76% 29.52 in 10.0 mi SSW 16.1 mph 24.2 mph N/A   Clear
6:15 AM 41.0 °F 31.4 °F 30.2 °F 65% 29.52 in 10.0 mi SW 21.9 mph 28.8 mph N/A   Clear
6:35 AM 39.2 °F 30.2 °F 30.2 °F 70% 29.52 in 10.0 mi SSW 17.3 mph 25.3 mph N/A   Clear
6:55 AM 37.4 °F 27.5 °F 30.2 °F 75% 29.53 in 10.0 mi SW 18.4 mph 25.3 mph N/A   Clear
7:15 AM 37.4 °F 27.2 °F 30.2 °F 75% 29.53 in 10.0 mi SW 19.6 mph 25.3 mph N/A   Mostly Cloudy
7:35 AM 37.4 °F 26.9 °F 28.4 °F 70% 29.54 in 10.0 mi SSW 20.7 mph 26.5 mph N/A   Overcast
7:55 AM 37.4 °F 26.6 °F 28.4 °F 70% 29.54 in 10.0 mi SW 21.9 mph 29.9 mph N/A   Overcast
8:15 AM 35.6 °F 25.2 °F 28.4 °F 75% 29.55 in 10.0 mi SW 18.4 mph 24.2 mph N/A   Overcast
8:35 AM 35.6 °F 28.0 °F 30.2 °F 81% 29.56 in 7.0 mi West 10.4 mph 18.4 mph N/A   Overcast
8:55 AM 33.8 °F 25.3 °F 30.2 °F 87% 29.56 in 5.0 mi West 11.5 mph 18.4 mph N/A   Overcast
9:15 AM 33.8 °F 25.8 °F 26.6 °F 75% 29.57 in 10.0 mi WSW 10.4 mph 21.9 mph N/A   Overcast
9:35 AM 33.8 °F 26.4 °F 24.8 °F 70% 29.57 in 10.0 mi WSW 9.2 mph 24.2 mph N/A   Overcast
9:55 AM 33.8 °F 24.8 °F 24.8 °F 70% 29.58 in 10.0 mi WSW 12.7 mph 19.6 mph N/A   Overcast
10:15 AM 32.0 °F 22.5 °F 23.0 °F 69% 29.59 in 10.0 mi WSW 12.7 mph 20.7 mph N/A   Overcast
10:35 AM 32.0 °F 24.8 °F 23.0 °F 69% 29.59 in 10.0 mi West 8.1 mph 20.7 mph N/A   Overcast
10:55 AM 30.2 °F 19.3 °F 21.2 °F 69% 29.60 in 10.0 mi WSW 15.0 mph 19.6 mph N/A   Overcast
11:15 AM 32.0 °F 23.0 °F 21.2 °F 64% 29.60 in 10.0 mi WSW 11.5 mph 20.7 mph N/A   Overcast
11:35 AM 32.0 °F 21.2 °F 23.0 °F 69% 29.61 in 10.0 mi WSW 16.1 mph 26.5 mph N/A   Overcast
11:55 AM 32.0 °F 22.1 °F 24.8 °F 75% 29.61 in 10.0 mi WSW 13.8 mph 23.0 mph N/A   Overcast
12:15 PM 33.8 °F 24.3 °F 24.8 °F 70% 29.62 in 10.0 mi West 13.8 mph 21.9 mph N/A   Overcast
12:35 PM 33.8 °F 25.3 °F 24.8 °F 70% 29.63 in 10.0 mi WSW 11.5 mph 25.3 mph N/A   Overcast
12:55 PM 33.8 °F 24.3 °F 24.8 °F 70% 29.63 in 10.0 mi WSW 13.8 mph 24.2 mph N/A   Overcast
1:15 PM 33.8 °F 25.8 °F 24.8 °F 70% 29.64 in 10.0 mi West 10.4 mph 18.4 mph N/A   Overcast
1:35 PM 33.8 °F 25.3 °F 24.8 °F 70% 29.65 in 10.0 mi WSW 11.5 mph 18.4 mph N/A   Overcast
1:55 PM 33.8 °F 25.3 °F 26.6 °F 75% 29.66 in 10.0 mi WSW 11.5 mph 21.9 mph N/A   Overcast
2:15 PM 32.0 °F 22.5 °F 26.6 °F 80% 29.67 in 10.0 mi WSW 12.7 mph 20.7 mph N/A   Overcast
2:35 PM 32.0 °F 23.0 °F 24.8 °F 75% 29.68 in 10.0 mi West 11.5 mph 26.5 mph N/A   Overcast
2:55 PM 30.2 °F 18.9 °F 23.0 °F 75% 29.69 in 10.0 mi West 16.1 mph 25.3 mph N/A   Overcast
3:15 PM 30.2 °F 20.8 °F 21.2 °F 69% 29.71 in 10.0 mi West 11.5 mph 23.0 mph N/A   Overcast
3:35 PM 30.2 °F 20.8 °F 19.4 °F 64% 29.72 in 10.0 mi West 11.5 mph 21.9 mph N/A   Overcast
3:55 PM 30.2 °F 19.8 °F 19.4 °F 64% 29.74 in 10.0 mi West 13.8 mph 24.2 mph N/A   Overcast
4:15 PM 30.2 °F 20.2 °F 19.4 °F 64% 29.75 in 10.0 mi West 12.7 mph 28.8 mph N/A   Overcast
4:35 PM 28.4 °F 19.1 °F 19.4 °F 69% 29.76 in 10.0 mi West 10.4 mph 19.6 mph N/A   Overcast
4:55 PM 28.4 °F 18.0 °F 19.4 °F 69% 29.78 in 10.0 mi West 12.7 mph 23.0 mph N/A   Overcast
5:15 PM 28.4 °F 18.5 °F 17.6 °F 64% 29.79 in 10.0 mi West 11.5 mph 23.0 mph N/A   Overcast
5:35 PM 30.2 °F 20.2 °F 17.6 °F 60% 29.81 in 10.0 mi WNW 12.7 mph 24.2 mph N/A   Overcast
5:55 PM 30.2 °F 20.8 °F 17.6 °F 60% 29.82 in 10.0 mi WNW 11.5 mph 19.6 mph N/A   Mostly Cloudy
6:15 PM 30.2 °F 21.3 °F 17.6 °F 60% 29.84 in 10.0 mi WNW 10.4 mph 23.0 mph N/A   Mostly Cloudy
6:35 PM 30.2 °F 19.8 °F 15.8 °F 55% 29.86 in 10.0 mi WNW 13.8 mph 19.6 mph N/A   Partly Cloudy
6:55 PM 28.4 °F 19.1 °F 15.8 °F 59% 29.87 in 10.0 mi WNW 10.4 mph 16.1 mph N/A   Clear
7:15 PM 28.4 °F 22.2 °F 15.8 °F 59% 29.88 in 10.0 mi NW 5.8 mph - N/A   Partly Cloudy
7:35 PM 28.4 °F 24.6 °F 15.8 °F 59% 29.90 in 10.0 mi WNW 3.5 mph - N/A   Clear
7:55 PM 28.4 °F 21.2 °F 15.8 °F 59% 29.92 in 10.0 mi WNW 6.9 mph - N/A   Clear
8:15 PM 28.4 °F 21.2 °F 15.8 °F 59% 29.94 in 10.0 mi WNW 6.9 mph - N/A   Scattered Clouds
8:35 PM 28.4 °F 22.2 °F 15.8 °F 59% 29.95 in 10.0 mi NW 5.8 mph - N/A   Mostly Cloudy
8:55 PM 28.4 °F 24.6 °F 15.8 °F 59% 29.97 in 10.0 mi NW 3.5 mph - N/A   Partly Cloudy
9:15 PM 28.4 °F - 15.8 °F 59% 29.98 in 10.0 mi Calm Calm - N/A   Mostly Cloudy
9:35 PM 28.4 °F - 15.8 °F 59% 29.98 in 10.0 mi Calm Calm - N/A   Overcast
9:55 PM 28.4 °F - 15.8 °F 59% 29.98 in 10.0 mi Calm Calm - N/A   Overcast
10:15 PM 28.4 °F - 15.8 °F 59% 29.99 in 10.0 mi Calm Calm - N/A   Overcast
10:35 PM 28.4 °F - 17.6 °F 64% 29.99 in 10.0 mi Calm Calm - N/A   Overcast
10:55 PM 26.6 °F - 21.2 °F 80% 29.99 in 10.0 mi Calm Calm - N/A   Overcast
11:15 PM 28.4 °F - 17.6 °F 64% 30.00 in 10.0 mi Calm Calm - N/A   Overcast
11:35 PM 26.6 °F - 17.6 °F 69% 30.01 in 10.0 mi Calm Calm - N/A   Overcast
11:55 PM 28.4 °F - 17.6 °F 64% 30.01 in 10.0 mi Calm Calm - N/A   Overcast